Probability
0 0 0 0 0 0 0 0 0 0 0 0 0 0 0 0 0 0 1 3 5 11 19 22 21 21 20 18 18 19 18 15 15 18 20 19 17 16 14 11 7 5 5 6 6 5 4 5 6
0 0 0 0 0 0 0 0 0 0 0 0 0 0 0 0 0 1 2 4 7 13 20 24 23 22 21 19 19 20 19 16 16 19 21 21 20 19 16 13 10 7 7 8 8 8 7 7 7
0 0 0 0 0 0 0 0 0 0 0 0 0 0 0 0 0 1 3 5 8 14 21 25 24 20 19 20 21 20 18 16 17 19 20 21 21 21 19 16 14 12 10 11 11 11 11 11 11
0 0 0 0 0 0 0 0 0 0 0 0 0 0 0 0 1 3 6 7 9 13 19 24 23 17 15 16 18 17 15 14 15 17 18 18 19 20 19 17 16 15 13 13 13 14 15 15 15
0 0 0 0 0 0 0 0 0 0 0 0 0 0 1 2 4 8 10 9 9 11 17 23 22 16 13 14 15 14 13 12 13 14 15 16 17 18 17 16 16 15 14 14 13 14 16 18 17
0 0 0 0 0 0 0 0 0 0 0 0 0 0 2 5 8 12 12 10 10 12 18 22 19 15 14 14 15 13 12 12 14 15 14 13 14 15 16 15 14 14 13 13 12 12 15 16 16
0 0 0 0 0 0 0 0 0 0 0 0 0 1 4 8 13 16 14 11 11 14 19 20 16 14 13 14 15 13 12 14 15 15 13 12 12 13 13 14 14 14 14 12 10 10 12 14 14
0 0 0 0 0 0 0 0 0 0 0 0 0 1 6 13 18 19 19 17 14 16 19 19 15 13 14 14 15 14 13 14 15 14 12 13 13 12 11 12 14 15 14 12 10 9 10 12 13
0 0 0 0 0 0 0 0 0 0 0 0 1 3 10 18 20 20 22 20 17 17 18 17 15 15 15 15 15 14 13 13 13 12 11 12 13 12 10 11 13 15 15 13 11 9 9 10 11
0 0 0 0 0 0 0 0 0 0 0 1 2 6 13 18 19 20 20 19 17 16 15 15 16 16 15 15 14 12 11 11 10 10 10 11 11 11 11 12 12 14 14 14 13 12 10 10 11
0 0 0 0 0 0 0 1 1 1 1 1 3 8 13 15 16 18 18 16 14 13 12 13 13 14 14 13 12 11 10 9 8 8 9 11 10 10 11 11 12 14 16 16 16 16 14 13 13
0 0 0 0 0 1 1 2 2 2 2 3 5 8 11 12 13 15 15 14 13 11 10 10 11 13 14 12 11 9 9 9 8 7 9 10 9 9 10 11 12 14 18 19 18 18 17 15 13
0 0 1 1 1 2 3 3 3 2 2 3 5 7 8 9 11 12 13 14 15 14 13 12 13 13 13 12 11 10 9 10 10 9 9 9 9 10 11 11 12 14 17 19 18 17 17 15 14
1 1 2 2 2 2 3 3 2 1 1 2 4 5 7 8 11 13 13 15 17 17 17 17 15 14 13 13 13 11 10 11 11 11 11 10 10 10 11 11 11 13 15 16 15 15 17 17 17
2 2 3 3 1 1 1 2 1 0 0 1 3 6 9 11 13 14 13 13 14 16 17 18 17 15 14 14 15 12 10 10 12 13 12 11 9 8 10 10 11 11 13 14 14 15 18 19 19
1 2 3 2 1 0 1 1 1 0 0 1 3 6 11 14 14 14 13 11 11 14 15 16 17 16 14 14 15 15 13 12 13 14 13 11 9 8 9 10 11 12 12 13 15 17 19 19 18
0 1 2 1 0 0 0 1 1 1 1 2 4 6 9 12 13 13 13 12 13 14 15 16 16 16 14 14 16 17 17 16 15 14 12 10 9 9 9 10 11 11 12 13 15 18 19 19 19
0 0 0 0 0 0 0 1 2 1 2 3 4 5 7 9 12 14 14 14 15 15 16 16 16 17 17 16 16 15 15 16 16 14 11 10 9 9 10 10 9 10 11 12 13 15 16 17 18
0 0 0 0 0 0 0 1 3 3 3 5 5 4 6 9 12 14 15 16 17 16 16 17 17 17 18 17 15 12 10 12 13 12 8 7 6 6 8 8 8 9 10 11 12 13 13 14 15
0 0 0 0 0 0 0 1 3 3 4 5 4 4 7 11 14 16 16 16 16 15 16 17 19 19 17 15 13 11 10 9 7 7 5 4 3 3 4 6 6 7 9 10 10 11 11 12 12
0 0 0 0 0 0 0 1 2 2 3 4 2 3 8 12 14 16 16 13 12 12 14 16 19 19 17 13 10 9 10 8 5 4 4 2 0 1 2 3 4 5 6 7 8 8 8 9 9
0 0 0 0 0 0 0 0 0 0 1 2 2 4 8 11 13 15 14 10 8 8 9 12 15 16 16 13 9 7 8 8 6 6 5 2 1 1 2 3 5 5 4 5 5 5 6 6 6
0 0 0 0 0 0 0 0 0 0 1 2 3 5 8 10 11 12 12 10 8 6 6 6 9 12 13 12 9 6 6 6 7 6 5 4 3 3 3 4 6 5 4 4 5 4 4 5 5
0 0 1 0 0 0 0 0 0 0 1 2 3 5 8 10 10 11 11 10 9 7 5 4 5 8 10 9 8 6 5 7 7 6 5 4 4 4 3 4 5 5 4 5 6 5 4 4 4
0 1 2 1 0 0 0 0 0 0 1 2 3 5 8 9 10 11 10 9 8 7 6 6 6 6 7 7 7 6 6 7 9 8 5 3 2 3 3 3 4 4 3 4 5 5 4 4 4
0 0 1 0 0 0 0 0 0 0 1 3 3 5 8 9 9 10 10 8 7 7 6 6 7 7 6 6 5 5 6 8 10 9 6 3 3 3 3 3 4 4 3 3 4 4 4 4 5
0 0 0 0 0 0 0 0 0 1 2 3 3 5 8 9 8 8 9 8 6 6 6 6 6 7 6 5 4 4 5 7 8 8 7 6 6 5 4 4 4 4 3 3 3 4 4 4 4
0 0 1 0 0 0 0 0 0 2 3 3 3 4 7 8 6 7 8 7 5 5 5 4 5 6 6 5 4 4 6 7 7 7 7 7 7 6 6 5 4 4 4 4 4 4 3 3 2
0 0 1 1 1 1 1 1 1 2 2 2 2 4 5 5 5 7 9 8 6 5 5 5 5 6 7 7 6 7 7 8 7 7 7 7 7 6 6 6 5 5 5 5 5 4 3 3 2
0 0 1 2 3 3 3 2 1 2 3 2 2 4 4 4 5 7 10 10 8 6 6 6 6 6 7 8 9 9 10 9 9 9 9 8 7 6 6 6 5 5 5 5 5 4 3 3 3
Wind_Speed
9 8 6 6 8 4 3 4 3 3 3 4 3 2 3 5 6 5 6 6 7 9 11 13 10 9 9 9 8 9 9 10 10 10 10 10 10 9 8 8 7 7 8 8 7 7 7 6 6
6 5 7 7 7 2 4 4 3 4 4 2 1 1 1 3 5 5 5 6 7 9 10 11 12 10 10 9 9 8 9 9 10 10 9 9 9 9 8 8 7 7 7 7 7 7 6 6 6
6 7 7 5 3 1 4 4 3 3 2 0 1 2 3 4 4 4 6 8 8 8 9 11 12 10 10 10 9 8 9 9 10 10 9 8 8 8 8 8 8 7 7 7 7 6 6 5 5
6 6 6 6 2 2 3 3 2 1 1 0 0 2 4 4 3 5 8 8 8 8 9 12 11 10 10 10 9 8 8 8 9 9 9 8 8 8 8 7 7 7 7 7 7 6 5 5 5
6 6 6 4 2 2 1 2 1 1 0 0 1 1 4 4 4 7 9 8 8 8 8 12 11 10 10 9 8 8 8 7 7 7 7 7 8 7 7 7 7 6 6 6 6 6 5 5 5
6 6 6 3 3 2 1 0 1 1 0 1 1 1 4 5 5 7 8 8 7 7 8 10 11 10 9 9 8 7 7 6 6 6 6 6 6 6 6 6 6 5 6 6 6 6 6 6 5
6 5 4 2 1 2 1 0 1 2 0 0 1 1 4 5 6 7 8 8 7 7 7 8 9 9 9 8 8 7 6 6 5 5 5 5 6 6 6 6 5 5 5 5 6 6 5 5 6
5 5 5 3 2 1 2 0 1 2 1 2 2 2 3 7 8 8 8 8 7 6 6 6 7 7 7 8 8 7 7 6 6 5 5 5 6 7 7 8 6 6 5 5 5 6 5 5 6
6 7 4 2 2 0 1 1 1 1 1 2 1 1 4 9 10 9 8 7 7 6 5 5 5 5 4 5 7 7 7 6 6 7 7 7 6 6 7 5 5 6 6 6 6 6 6 7 9
6 7 3 1 3 3 2 3 2 3 3 2 2 3 7 9 10 10 9 8 8 7 6 5 5 5 4 3 4 3 3 4 4 3 4 4 3 3 3 5 6 6 7 8 8 8 10 10 6
6 6 2 3 4 4 4 4 3 5 4 2 1 4 8 9 9 9 8 8 7 7 6 5 4 3 3 2 2 2 2 2 4 3 3 3 3 3 3 3 5 6 8 6 7 9 6 5 3
6 6 5 4 4 5 5 4 4 5 4 2 1 4 8 9 8 8 8 7 7 6 6 5 4 3 2 1 1 2 1 2 2 3 3 2 2 2 2 3 3 3 3 3 4 4 4 4 5
8 6 5 5 5 6 5 6 5 5 3 1 2 6 8 9 8 7 6 6 7 6 6 5 4 4 2 1 1 1 1 2 2 2 3 3 2 3 2 2 2 3 2 3 3 3 3 5 5
5 5 6 6 5 4 5 4 5 4 2 3 4 6 7 8 7 7 6 6 5 6 5 4 4 4 3 2 2 1 2 1 2 2 2 3 3 2 3 3 3 3 3 2 3 3 4 5 4
5 7 7 6 5 4 5 5 5 2 3 4 5 5 7 7 7 7 7 6 6 5 5 5 5 4 4 3 2 2 2 2 2 2 2 3 4 3 3 3 3 2 2 2 3 4 4 4 5
9 9 7 4 4 4 7 5 2 2 4 4 5 5 6 6 6 6 6 6 6 5 5 5 3 4 4 2 2 2 2 2 2 2 2 3 3 4 4 3 3 2 3 3 3 4 4 3 4
10 9 7 3 4 4 7 6 0 2 4 4 4 5 5 5 5 5 5 5 5 5 5 4 3 3 3 3 2 2 1 2 2 2 1 2 3 4 4 3 2 3 3 2 3 2 3 3 3
7 7 7 6 2 5 7 6 2 2 4 4 4 5 5 5 5 4 5 5 5 5 4 4 4 3 3 3 2 2 2 2 1 1 0 2 3 3 3 3 2 3 2 2 2 2 2 2 2
8 9 8 5 2 5 6 5 3 3 5 5 5 5 5 5 5 5 5 5 4 4 4 5 4 4 3 2 2 2 2 1 1 1 0 2 3 2 3 3 2 3 2 2 3 2 3 2 1
9 10 8 4 2 5 6 6 4 4 5 5 4 5 5 5 5 5 5 5 4 4 4 4 4 4 4 2 2 1 1 1 1 1 1 1 2 2 2 2 2 2 2 2 2 2 2 1 1
10 10 7 6 4 6 7 7 6 5 4 4 4 4 4 5 6 5 5 5 4 4 4 3 3 4 3 3 2 2 1 1 1 1 1 1 2 2 2 2 1 1 2 1 2 3 3 2 2
9 7 7 7 8 5 6 6 5 6 5 5 4 4 4 5 5 5 5 5 5 4 4 3 3 3 3 3 2 2 2 2 1 1 1 1 1 1 1 1 1 2 2 1 3 2 3 3 2
8 5 8 8 9 8 8 9 3 6 5 5 5 5 4 4 5 5 5 5 4 4 4 4 3 3 3 2 2 2 2 1 1 1 2 1 2 1 1 1 2 2 2 1 2 1 3 2 3
6 6 7 9 9 9 6 8 3 2 3 4 6 6 5 5 5 4 4 4 4 4 4 4 4 3 2 2 2 2 1 1 1 1 1 1 1 1 1 0 1 1 1 1 2 2 3 2 3
9 8 6 7 7 5 3 6 1 2 1 2 4 6 6 6 6 5 5 5 4 4 4 4 4 3 2 2 1 1 2 2 2 1 1 1 1 1 1 0 0 1 1 1 2 2 2 2 2
9 10 7 6 6 4 5 4 2 4 2 1 3 5 6 6 6 6 6 5 5 5 4 3 3 3 3 2 2 1 1 1 1 0 0 1 0 1 1 0 1 1 1 2 2 2 2 2 2
9 9 6 8 9 7 4 3 4 4 3 3 4 5 6 6 6 6 5 5 4 4 4 4 3 3 3 3 2 2 2 1 1 1 1 0 1 1 1 0 1 1 1 1 1 1 1 1 2
7 5 5 7 6 6 5 4 0 2 2 4 5 5 6 6 5 5 5 4 4 4 4 4 3 3 3 3 3 2 2 2 1 1 1 1 1 1 0 1 1 1 1 1 1 1 1 1 2
8 7 6 6 6 7 4 2 5 3 1 2 4 5 6 6 5 5 5 4 4 4 4 4 3 3 3 3 3 2 2 2 2 1 1 1 1 1 1 1 1 1 1 1 1 2 1 2 2
5 6 7 6 5 6 5 2 5 3 2 2 3 4 5 5 5 5 5 5 4 4 4 3 3 3 3 3 3 3 2 3 3 2 2 1 1 1 1 1 1 1 1 1 1 2 2 2 3
Wind_Direction
206 211 227 236 237 218 91 76 50 59 62 39 24 348 356 2 352 38 85 127 135 141 139 150 151 150 149 146 142 140 142 143 147 149 150 152 154 154 154 151 151 150 149 148 149 150 150 148 149
213 217 232 240 253 190 102 67 53 39 52 54 57 359 25 48 43 78 115 129 140 139 143 149 146 150 150 146 143 143 148 149 152 151 150 153 156 155 155 154 155 155 154 154 155 155 155 157 162
214 236 255 247 255 346 85 66 55 62 86 328 78 30 28 49 78 97 116 142 144 139 144 138 149 150 147 143 145 150 152 154 154 154 154 155 154 154 157 162 164 166 166 165 165 164 162 162 165
223 223 236 244 193 58 37 46 46 83 115 347 230 102 90 55 62 103 129 146 144 146 151 138 152 152 149 148 151 155 157 157 158 158 158 159 158 160 164 166 167 171 172 174 176 174 172 170 173
238 246 230 214 159 91 54 22 288 288 54 95 232 104 96 78 89 119 137 145 146 146 144 138 149 150 151 154 156 155 154 154 155 157 163 164 164 166 170 175 177 180 180 179 180 178 178 178 178
231 238 236 207 144 118 91 95 241 305 98 130 206 144 93 99 122 136 141 146 146 140 135 131 142 146 149 154 155 152 150 152 154 157 161 166 169 172 176 183 186 186 187 187 188 190 190 193 192
257 249 246 232 166 152 68 23 279 327 3 90 246 155 116 127 134 143 146 145 142 140 136 141 150 153 157 158 156 154 153 155 160 164 167 173 180 186 191 195 194 194 196 194 195 199 196 198 203
274 258 229 221 226 137 89 60 354 311 8 73 229 223 135 138 144 149 148 145 142 141 137 143 149 152 165 163 156 163 164 169 174 174 179 184 192 198 203 206 198 205 207 203 202 207 206 207 210
249 246 228 222 249 46 115 248 346 315 185 180 221 335 89 134 150 152 150 149 148 144 144 151 151 154 171 165 149 170 174 175 187 186 186 205 209 202 199 199 192 210 213 208 208 218 222 222 211
237 247 243 322 296 297 279 276 281 228 221 201 175 126 122 149 162 164 162 163 161 161 159 155 154 157 169 157 149 180 189 174 206 197 193 213 210 226 226 165 196 211 215 214 209 219 224 229 218
232 255 275 277 292 292 279 270 249 243 254 268 228 160 156 168 174 174 172 169 165 162 161 157 158 163 171 162 169 176 193 186 202 196 204 213 228 216 224 206 194 205 215 220 205 215 222 226 236
234 251 271 276 292 281 276 265 247 251 284 336 259 169 168 178 179 179 175 169 163 165 165 161 160 159 177 187 182 196 198 202 211 188 216 207 226 238 227 230 229 223 219 219 231 224 219 232 234
232 247 259 267 269 274 269 259 257 254 269 249 173 164 174 180 177 173 170 168 167 169 168 166 170 160 173 187 247 209 243 222 202 212 203 223 227 236 232 234 239 247 241 225 226 237 232 237 233
250 260 263 258 247 244 242 253 239 246 221 185 177 171 176 177 174 169 170 171 171 170 169 166 180 168 178 186 209 223 233 229 238 219 209 224 236 229 235 229 233 242 243 251 249 241 232 236 239
252 251 246 228 220 220 243 239 230 218 192 186 184 178 173 174 176 176 174 177 174 174 172 176 182 174 187 199 211 213 223 226 237 225 215 230 238 226 240 242 239 243 241 230 240 247 244 238 232
231 235 230 191 206 206 245 257 143 148 192 197 188 179 175 174 180 174 174 180 179 177 173 179 180 172 182 196 218 233 238 239 240 231 219 226 245 243 247 244 249 247 245 237 229 240 246 242 243
218 232 239 207 196 225 249 273 149 200 213 209 194 186 185 178 185 176 174 178 180 178 178 175 169 169 181 184 203 228 233 250 248 230 239 237 238 240 250 257 263 247 247 251 251 229 253 242 244
237 246 249 251 225 244 255 267 248 219 224 224 209 197 194 188 184 177 173 175 176 178 180 173 171 168 179 180 186 207 215 221 231 223 254 263 248 243 256 245 244 255 250 250 254 242 236 246 243
267 261 256 266 284 259 262 268 264 217 233 233 217 206 202 191 171 164 169 168 168 170 174 177 175 163 179 189 210 202 209 228 225 218 192 272 272 253 254 269 240 257 255 254 240 234 215 226 228
250 252 252 250 228 261 269 268 251 220 230 232 221 206 200 183 167 159 162 166 166 163 170 178 176 166 189 186 218 222 241 241 226 227 162 246 264 265 244 265 262 257 249 227 234 237 253 238 217
242 249 254 263 265 240 252 241 215 203 214 213 213 202 193 187 176 168 166 165 166 166 171 178 176 178 189 180 192 174 177 221 187 194 174 214 240 252 274 236 256 256 249 214 222 222 230 237 227
242 244 250 252 253 248 242 259 209 192 194 205 203 195 185 181 176 174 167 164 167 164 164 165 170 172 169 181 185 188 209 223 217 220 147 162 177 214 233 233 239 263 279 250 237 202 228 231 230
249 240 244 247 256 263 238 255 206 182 205 201 196 191 187 185 176 171 168 163 158 154 155 152 147 151 159 171 169 198 210 222 197 188 151 175 147 179 215 228 246 264 271 264 271 233 247 248 254
228 223 232 235 242 247 245 256 244 179 213 198 184 182 179 177 172 167 156 154 153 149 151 146 145 145 145 162 169 190 189 198 185 177 144 161 138 146 116 256 269 257 269 246 248 245 242 261 263
217 229 234 229 228 240 203 243 278 78 184 223 187 175 173 173 171 166 162 162 160 160 161 154 152 149 142 143 166 184 187 187 184 194 158 156 148 129 111 47 280 282 281 261 248 234 246 238 241
223 238 253 267 259 254 210 237 92 88 85 175 178 165 164 170 169 168 167 167 169 168 169 164 166 160 150 150 153 154 177 207 143 152 238 152 91 69 81 176 256 273 269 260 245 246 231 225 242
223 233 267 271 267 263 223 179 155 121 132 152 159 160 164 167 168 169 165 164 165 167 170 175 172 164 162 160 152 152 158 133 96 148 210 117 46 45 73 246 249 250 261 276 269 270 253 236 243
249 237 237 254 263 257 224 214 170 100 132 155 163 165 160 160 163 160 159 165 166 164 164 170 172 179 175 169 169 158 159 157 154 168 92 34 358 332 257 236 253 249 217 237 270 269 261 256 257
202 210 235 254 273 277 262 107 50 36 62 153 156 157 157 160 161 156 157 166 172 173 169 178 179 188 187 181 176 174 174 170 181 195 184 197 250 246 233 224 224 240 256 257 264 289 290 269 270
233 229 228 243 247 266 281 83 70 60 85 119 138 143 145 154 156 156 159 161 167 178 179 181 196 199 196 189 184 184 181 179 191 186 185 194 211 229 232 244 252 260 265 271 265 281 283 270 268